Location: Chiroubles
(46.1812°N, 4.6660°E)
Time: 02:44:23
(UTC+00:00)

SJ-6B - Pass Details

Date: 15 August 2020
Orbit: 510 x 581 km, 97.6° (Epoch: 27 September)

Event Time Altitude Azimuth Distance (km) Brightness Sun altitude
Rises 19:20:17 0° 164° (SSE) 2,754 6.0 -5.7°
Reaches altitude 10° 19:22:25 10° 163° (SSE) 1,852 5.1 -6.0°
Maximum altitude 19:26:26 83° 77° (ENE) 566 2.8 -6.6°
Drops below altitude 10° 19:30:24 10° 349° (N) 1,826 6.1 -7.2°
Sets 19:32:30 0° 348° (NNW) 2,712 7.0 -7.5°
